Temperature
18 18 18 18 18 18 18 18 18 18 18 18 18 18 18 18 18 18 18 18 18 18 18 18 18 18 18 18 18 18 18 18 18 18 18 18 18 18 18 18 17 17 18
18 18 18 18 18 18 18 18 18 18 18 18 18 18 18 18 18 18 18 18 18 18 18 18 18 18 18 18 18 18 18 18 18 18 18 18 18 18 18 18 17 17 17
18 18 18 18 18 18 18 18 18 18 18 18 18 18 18 18 18 18 18 18 18 18 18 18 18 18 18 18 18 18 18 18 18 18 18 17 17 18 18 18 17 17 17
18 18 18 18 18 18 18 18 18 18 18 18 18 18 18 18 18 18 18 18 18 18 18 18 18 18 18 18 18 18 18 18 18 18 18 17 17 18 17 17 17 17 17
18 18 18 18 18 18 18 18 18 18 18 18 18 18 18 18 18 18 18 18 18 18 18 18 18 18 18 18 18 18 18 18 18 17 17 17 17 17 17 17 17 17 17
18 18 17 18 18 18 18 18 18 18 18 18 18 18 18 18 18 18 18 18 18 18 18 18 18 18 18 18 18 18 18 18 18 17 17 17 17 17 17 17 17 17 17
19 18 17 18 18 18 18 18 18 18 18 18 18 18 18 18 18 18 18 18 18 18 18 18 18 18 18 18 18 18 18 18 17 18 17 17 17 17 17 17 17 17 17
19 18 18 18 18 18 18 18 18 18 18 18 18 18 18 18 18 18 18 18 18 18 18 18 18 18 18 18 18 18 18 18 17 17 17 17 17 17 17 17 17 17 17
19 18 18 18 18 18 18 18 18 18 18 18 18 18 18 18 18 18 18 18 18 18 18 18 18 18 18 18 18 18 18 18 18 18 17 17 17 17 17 17 17 17 17
19 18 18 18 18 18 17 18 18 18 18 18 18 18 18 18 18 18 18 18 18 18 18 18 18 18 18 18 18 18 18 18 18 18 18 17 18 17 17 17 17 17 17
18 18 19 18 18 18 18 17 17 18 18 18 18 18 18 17 17 17 17 18 18 18 18 18 18 18 18 18 18 18 18 18 18 18 17 17 17 17 17 17 17 17 17
19 19 18 18 18 18 18 18 17 18 17 17 17 17 17 17 18 18 18 18 18 18 18 18 18 18 18 18 18 18 18 18 18 18 17 18 17 17 17 17 17 17 17
19 19 19 18 18 18 18 18 18 18 17 17 17 17 17 17 18 18 18 18 18 18 18 18 18 18 18 18 18 18 18 18 18 18 18 18 18 17 17 17 17 17 17
19 19 19 18 18 18 18 18 18 18 18 18 17 18 18 18 18 18 18 18 18 18 17 18 17 17 17 17 17 18 18 18 18 18 17 18 17 17 17 17 17 17 17
19 19 18 18 18 18 18 18 18 18 18 18 18 18 18 18 18 18 18 18 18 18 18 18 17 17 17 17 17 17 17 17 17 17 17 17 17 17 17 17 17 17 17
19 19 18 18 18 18 18 18 18 18 18 18 18 18 18 18 18 18 18 18 18 18 18 18 17 17 17 17 17 17 17 17 17 17 17 17 17 17 17 17 17 17 16
19 19 18 18 18 18 18 18 18 18 18 18 18 18 18 18 18 18 18 18 18 18 18 18 18 17 17 17 17 17 17 17 17 17 17 17 17 17 17 17 17 17 16
19 19 19 19 18 18 18 18 18 18 18 18 18 18 18 18 18 18 18 18 18 18 18 18 18 17 17 17 17 17 17 17 17 17 17 17 17 17 17 17 17 16 16
19 19 19 18 18 18 18 18 18 18 18 18 18 18 18 18 18 18 18 18 18 18 18 18 18 18 17 17 17 17 17 17 17 17 17 17 17 16 16 16 16 16 16
19 19 19 18 18 18 18 18 18 18 18 18 18 18 18 18 18 18 18 18 18 18 18 18 18 18 17 17 17 17 17 17 17 17 17 16 16 16 16 16 16 16 16
19 19 19 19 18 18 18 18 18 18 18 18 18 18 18 18 18 18 18 18 18 18 18 18 18 17 17 17 17 17 17 17 17 16 16 16 16 16 16 16 16 15 15
20 19 19 19 19 19 18 18 18 18 18 18 18 18 18 18 18 18 18 18 18 18 18 18 17 17 17 17 17 17 17 17 16 16 16 16 16 16 16 15 15 16 15
20 20 19 19 19 19 18 18 18 18 18 18 18 18 18 18 18 18 18 18 18 18 18 17 17 17 17 17 17 17 18 18 17 16 16 16 15 15 15 15 15 15 15
20 20 20 19 19 19 19 18 18 18 19 18 18 18 18 18 18 18 18 18 18 18 18 17 17 17 17 17 17 17 17 17 17 17 16 16 15 15 15 15 15 14 14
21 20 20 20 19 19 19 19 18 19 18 18 18 18 18 18 18 18 18 18 18 17 18 17 17 17 17 17 17 17 17 17 17 17 16 16 15 15 15 15 14 14 14
21 20 20 20 20 19 19 19 19 18 18 18 18 18 18 18 17 17 17 17 17 17 17 17 17 17 17 17 17 17 17 17 17 17 16 16 15 15 15 14 14 14 14
Wind_Speed
4 6 8 8 9 11 12 13 13 13 14 14 15 15 16 16 16 16 16 16 16 16 16 16 16 16 16 16 17 16 16 16 16 16 17 16 16 16 15 15 14 15 16
5 7 9 8 11 12 13 13 14 13 14 14 14 15 15 16 16 16 15 15 15 16 16 16 16 17 17 16 16 16 15 16 15 15 16 16 15 14 13 11 8 14 15
6 8 8 10 11 12 13 13 13 14 14 15 15 14 15 15 15 16 15 15 15 16 15 16 17 17 17 16 15 15 14 14 14 13 13 13 14 13 13 12 13 15 14
6 8 10 11 11 12 12 13 14 14 14 14 14 14 14 15 15 16 15 15 15 15 15 16 17 17 16 15 14 14 13 13 12 10 8 10 12 13 12 12 13 13 13
7 9 11 11 12 12 12 12 13 14 13 14 14 14 14 14 15 15 15 15 15 15 15 15 16 15 14 14 13 12 12 12 9 7 8 8 10 13 12 12 12 12 12
8 9 12 10 12 12 12 12 12 13 13 13 13 13 14 14 15 15 15 14 14 14 14 14 14 14 13 12 11 11 11 10 10 7 8 7 10 12 11 11 11 11 11
9 10 12 11 11 11 12 12 12 13 13 13 13 13 13 13 13 13 14 14 14 14 13 13 13 12 11 11 10 9 9 7 4 7 6 6 9 12 10 10 10 11 10
9 10 12 11 11 11 11 12 12 12 12 12 12 12 11 12 12 12 12 13 13 13 12 12 11 12 10 9 8 7 6 6 5 6 5 7 10 10 9 9 9 10 10
8 8 8 10 10 10 11 11 11 11 11 11 11 10 10 11 11 11 12 12 12 12 11 11 11 11 10 9 7 6 4 4 2 5 5 6 11 9 8 8 9 10 9
7 7 7 8 9 8 10 11 10 10 10 10 10 10 9 10 11 10 11 11 10 10 10 10 10 10 9 8 6 4 4 4 2 4 4 8 11 9 8 8 8 9 9
6 5 6 7 7 7 9 10 9 10 9 8 9 9 6 7 9 10 12 11 9 9 9 9 9 8 8 8 7 4 5 2 3 3 4 11 10 9 8 8 8 8 8
6 6 6 6 6 6 6 7 6 7 7 6 7 6 6 6 6 8 12 9 8 8 8 8 7 7 6 6 8 7 3 2 2 3 6 11 8 8 8 8 8 7 8
6 6 6 6 5 5 5 4 4 5 5 6 6 5 5 4 5 6 6 8 8 7 6 8 6 4 3 3 2 2 1 0 1 2 7 10 7 7 7 7 8 8 8
5 5 5 5 4 4 3 4 4 4 4 4 5 4 4 3 3 3 3 3 3 4 4 3 3 3 3 3 2 1 1 1 0 1 6 9 7 6 6 7 8 8 9
5 5 5 4 4 3 3 1 3 3 3 4 4 4 3 2 2 3 2 2 2 2 3 3 3 3 2 2 1 1 1 0 0 1 4 8 7 5 6 7 7 8 9
5 5 5 4 4 3 3 2 2 3 3 3 3 3 2 2 2 2 2 2 1 1 2 2 3 2 1 2 1 1 0 0 0 0 1 5 7 6 5 6 6 7 8
5 5 5 4 4 3 3 2 3 2 3 3 3 3 2 2 2 1 1 1 2 2 2 1 2 1 2 2 2 1 0 1 1 1 1 1 3 7 6 5 5 5 6
6 6 4 4 4 4 2 1 2 1 2 2 2 3 2 2 1 0 1 1 1 2 2 1 1 1 1 1 1 1 1 1 1 1 1 1 1 1 5 6 5 5 5
6 6 6 4 3 3 3 2 2 2 1 1 2 2 2 2 1 0 1 1 1 1 1 1 2 1 1 1 1 1 1 1 1 1 1 1 0 1 1 4 4 4 4
6 6 6 5 4 3 3 2 2 2 1 1 1 2 1 1 1 1 1 1 0 0 0 0 0 1 1 1 1 2 1 1 1 1 1 1 1 1 1 1 2 3 3
7 7 6 5 5 4 2 2 2 2 1 1 1 2 1 1 1 1 1 1 1 0 1 1 1 2 2 2 2 1 2 1 1 1 1 1 2 3 3 3 2 1 3
8 7 7 7 6 5 3 1 1 1 1 1 1 2 1 1 1 0 1 1 1 0 0 1 1 2 1 2 2 1 2 2 2 2 1 2 2 2 3 4 3 3 2
9 9 7 7 6 5 4 3 2 2 2 2 2 1 1 0 0 2 1 2 1 1 1 1 1 2 2 2 2 2 1 0 1 2 2 3 2 2 2 3 4 4 3
10 9 8 8 7 6 5 4 3 2 1 1 1 1 1 0 0 1 1 1 1 1 1 1 1 1 2 1 1 1 2 1 1 1 1 2 2 2 2 2 3 4 4
10 9 9 8 7 6 5 5 4 3 1 1 1 2 1 1 0 1 1 1 1 1 1 2 1 2 1 2 1 1 0 1 2 2 1 1 1 1 2 2 3 4 4
10 10 9 9 7 7 6 5 4 3 2 1 1 1 2 1 0 1 1 1 1 1 1 1 1 1 2 2 2 1 1 1 1 1 1 2 1 1 2 2 2 3 3
Wind_Direction
52 51 52 55 72 85 90 91 92 94 100 102 104 107 108 109 108 110 113 117 120 122 124 126 126 124 123 121 120 120 119 118 120 121 121 122 123 124 126 132 137 121 122
72 67 65 69 84 87 89 90 92 93 99 103 105 106 108 110 109 108 111 114 117 119 122 125 125 123 122 122 122 122 122 122 123 125 128 126 123 124 126 127 113 117 128
80 83 84 75 85 89 89 89 91 94 96 101 102 103 104 107 108 108 107 110 113 116 117 121 123 123 123 123 122 122 123 122 125 135 152 135 126 128 129 124 117 125 129
84 84 81 80 82 87 89 89 92 93 93 98 100 102 104 105 105 107 108 108 110 113 115 118 121 122 122 121 122 123 124 124 132 163 149 125 128 128 131 129 128 130 131
88 85 84 81 81 83 86 89 93 93 92 96 99 102 103 105 107 108 110 110 111 113 113 114 117 120 119 120 123 126 127 131 152 177 116 121 121 130 135 134 133 134 133
97 92 89 84 84 81 82 87 92 95 94 98 100 101 102 104 106 108 110 111 114 114 113 115 117 119 121 123 127 130 135 150 181 131 127 133 126 135 140 141 140 138 136
96 95 94 87 84 82 81 82 88 93 95 98 99 99 100 102 104 106 108 112 114 115 115 116 117 118 120 123 126 132 142 174 167 121 130 124 119 136 145 146 147 145 143
97 98 100 98 90 85 83 83 84 89 94 96 99 100 100 102 103 107 110 111 113 115 116 116 117 116 118 119 121 132 154 207 154 129 130 120 121 142 150 153 153 149 148
96 98 103 108 106 102 93 87 85 87 92 96 98 100 102 101 102 107 111 111 110 110 112 116 116 116 117 118 121 129 152 224 212 133 134 128 132 149 154 158 158 157 155
98 100 100 100 102 111 108 97 92 91 93 100 99 99 106 111 112 118 123 112 111 111 111 116 117 118 120 124 128 135 160 217 183 131 128 124 139 155 158 160 161 160 163
100 101 102 102 101 101 102 107 113 110 108 122 115 111 121 117 118 130 106 112 114 114 115 116 122 128 139 144 142 152 196 185 125 111 115 120 147 160 164 166 170 171 174
114 113 105 100 99 101 100 107 111 111 109 106 101 107 107 100 101 107 115 121 122 124 128 126 132 155 189 155 152 179 187 144 118 125 117 131 154 170 177 178 182 184 186
124 118 116 110 109 108 109 112 102 101 105 107 100 102 98 107 113 113 125 134 138 149 144 140 161 159 147 122 136 156 118 107 101 118 123 140 159 176 182 185 186 190 196
123 118 116 116 111 97 98 111 117 111 110 103 104 95 102 97 93 98 108 112 132 130 118 132 131 122 117 116 131 128 156 214 126 106 117 138 159 180 191 196 199 200 203
130 127 120 116 111 116 115 116 104 95 98 100 90 91 84 101 93 97 88 85 94 105 134 130 116 114 123 133 142 143 166 185 267 176 132 145 162 185 201 206 208 209 209
142 136 132 135 127 122 128 123 106 111 110 91 93 88 85 87 79 95 113 97 94 111 89 101 117 127 129 110 118 117 265 246 126 134 227 149 166 182 200 210 210 209 210
148 142 144 147 137 137 138 143 128 131 121 110 107 97 93 104 102 103 108 131 109 110 116 142 135 138 153 149 130 127 195 7 21 41 322 247 179 179 184 197 203 208 211
152 148 153 149 142 144 138 141 126 107 97 105 103 101 96 87 100 154 95 97 116 136 142 147 178 156 126 165 142 137 106 89 61 36 288 255 259 196 174 185 201 209 215
163 160 160 157 152 147 144 151 148 121 105 118 100 87 96 103 98 142 87 88 172 166 176 223 117 144 146 143 154 129 95 80 72 46 347 308 2 281 224 155 177 196 210
170 169 169 168 163 164 163 156 153 143 154 135 106 90 85 103 76 337 110 82 246 153 212 312 138 173 178 163 116 79 74 75 54 43 348 29 35 15 353 316 165 155 156
174 174 174 174 165 173 177 179 161 153 149 137 131 103 99 17 39 333 8 88 290 41 297 251 220 186 167 156 159 136 134 117 92 71 33 35 55 46 38 27 37 28 123
179 178 177 178 173 182 168 177 178 145 177 150 113 108 102 57 352 31 18 336 44 62 258 260 236 250 213 196 233 221 187 158 124 86 79 79 57 55 57 54 50 41 27
184 185 182 179 178 184 179 181 164 167 198 157 157 153 129 99 22 1 7 358 344 300 30 279 254 253 239 220 236 262 262 193 134 110 75 62 56 56 52 54 53 50 54
186 183 180 180 181 183 190 194 191 188 176 149 176 123 131 126 356 360 18 17 341 0 26 286 48 288 267 251 193 263 301 349 243 151 130 99 83 64 47 45 56 58 55
186 182 179 179 184 186 195 192 203 202 180 171 169 127 188 127 344 1 28 18 353 2 28 4 349 309 294 293 258 216 189 181 243 244 196 161 99 73 64 52 49 49 54
183 182 179 179 185 189 196 195 201 196 196 184 197 173 205 163 169 43 52 18 352 15 32 355 316 273 322 321 291 254 238 248 236 243 228 215 180 99 75 62 56 62 63
Height
1514 1511 1507 1505 1503 1503 1505 1506 1506 1506 1507 1507 1508 1509 1510 1511 1512 1513 1514 1516 1517 1519 1521 1522 1525 1527 1529 1531 1533 1536 1537 1539 1541 1542 1544 1545 1546 1548 1549 1550 1552 1554 1554
1516 1513 1511 1509 1508 1508 1508 1509 1509 1510 1510 1510 1511 1513 1513 1514 1515 1516 1517 1518 1519 1520 1521 1523 1525 1528 1530 1533 1535 1537 1539 1541 1542 1544 1545 1547 1548 1549 1551 1552 1554 1555 1556
1518 1516 1514 1513 1512 1512 1512 1512 1513 1513 1513 1514 1515 1515 1516 1517 1518 1518 1519 1520 1521 1522 1522 1523 1525 1529 1532 1535 1537 1539 1541 1543 1544 1546 1548 1551 1550 1551 1552 1553 1554 1556 1557
1520 1519 1518 1516 1516 1516 1516 1516 1516 1516 1516 1517 1518 1518 1519 1520 1521 1521 1522 1523 1523 1523 1524 1525 1527 1530 1534 1537 1539 1541 1543 1544 1546 1548 1552 1553 1553 1552 1554 1555 1555 1556 1558
1522 1522 1520 1519 1519 1518 1518 1518 1518 1519 1519 1520 1520 1521 1522 1522 1523 1524 1525 1525 1526 1527 1528 1529 1531 1534 1536 1539 1541 1543 1545 1546 1548 1550 1553 1553 1554 1554 1555 1556 1556 1558 1558
1525 1525 1523 1522 1522 1521 1521 1521 1521 1521 1522 1522 1523 1524 1525 1525 1526 1527 1528 1528 1529 1531 1532 1533 1535 1537 1539 1542 1543 1545 1547 1548 1550 1553 1553 1555 1555 1554 1555 1556 1557 1558 1559
1528 1528 1526 1525 1525 1524 1524 1524 1523 1524 1524 1525 1526 1526 1527 1527 1528 1528 1530 1531 1532 1534 1535 1537 1539 1540 1542 1544 1545 1547 1548 1549 1553 1554 1554 1556 1555 1555 1556 1557 1558 1559 1560
1531 1530 1529 1528 1528 1527 1527 1527 1527 1527 1527 1528 1528 1529 1529 1529 1529 1529 1531 1534 1535 1537 1538 1540 1541 1543 1544 1546 1547 1548 1550 1550 1554 1555 1556 1556 1555 1556 1557 1557 1558 1560 1561
1533 1533 1533 1533 1531 1531 1530 1530 1530 1530 1530 1531 1531 1531 1530 1530 1530 1531 1533 1535 1537 1539 1540 1542 1543 1545 1546 1547 1549 1550 1551 1551 1555 1556 1557 1557 1556 1556 1557 1558 1559 1560 1561
1535 1535 1535 1535 1535 1535 1534 1533 1533 1533 1533 1533 1533 1533 1533 1532 1532 1533 1535 1537 1540 1541 1543 1544 1545 1547 1548 1549 1550 1551 1552 1553 1555 1557 1557 1557 1556 1557 1558 1558 1560 1560 1561
1536 1537 1538 1538 1538 1538 1538 1536 1536 1536 1536 1536 1536 1535 1535 1537 1537 1537 1539 1540 1542 1544 1545 1546 1547 1548 1549 1550 1551 1552 1553 1555 1556 1557 1557 1557 1557 1557 1558 1559 1560 1561 1561
1538 1539 1539 1540 1540 1540 1540 1540 1540 1540 1539 1539 1539 1539 1539 1539 1540 1541 1542 1543 1544 1545 1547 1547 1549 1550 1551 1553 1553 1553 1555 1556 1557 1557 1557 1557 1557 1558 1558 1559 1560 1560 1561
1540 1540 1541 1541 1541 1542 1542 1542 1542 1542 1541 1541 1541 1541 1541 1542 1543 1544 1545 1546 1547 1547 1549 1549 1551 1552 1553 1554 1555 1555 1556 1557 1557 1558 1558 1557 1557 1558 1558 1559 1559 1560 1561
1541 1542 1542 1542 1542 1542 1543 1544 1544 1544 1544 1545 1544 1544 1545 1545 1545 1546 1547 1548 1549 1549 1550 1551 1552 1553 1553 1554 1555 1556 1556 1557 1557 1558 1557 1557 1557 1558 1558 1558 1559 1559 1560
1543 1543 1543 1543 1543 1543 1543 1545 1546 1546 1547 1547 1546 1547 1547 1547 1548 1548 1548 1549 1550 1551 1551 1551 1552 1552 1553 1554 1555 1556 1556 1557 1557 1558 1557 1556 1556 1557 1557 1558 1558 1559 1559
1544 1544 1545 1544 1544 1544 1545 1545 1546 1547 1547 1548 1548 1548 1548 1549 1549 1550 1550 1550 1551 1551 1552 1552 1552 1553 1553 1554 1554 1555 1555 1556 1556 1556 1557 1556 1555 1556 1556 1557 1557 1557 1558
1545 1545 1545 1546 1546 1546 1547 1547 1548 1549 1550 1549 1549 1549 1549 1550 1550 1550 1551 1551 1552 1552 1552 1552 1552 1553 1553 1554 1554 1554 1555 1555 1555 1555 1555 1555 1555 1555 1555 1555 1555 1556 1556
1545 1545 1546 1548 1548 1548 1548 1548 1549 1550 1550 1551 1551 1551 1550 1550 1551 1551 1551 1552 1551 1552 1552 1552 1553 1553 1553 1553 1554 1554 1554 1553 1553 1553 1554 1554 1554 1554 1554 1554 1554 1554 1554
1545 1546 1546 1547 1548 1549 1549 1549 1550 1550 1551 1552 1552 1552 1551 1551 1551 1551 1551 1551 1551 1552 1552 1552 1552 1552 1552 1552 1553 1552 1553 1553 1552 1552 1552 1553 1553 1552 1553 1552 1552 1552 1552
1545 1545 1546 1547 1548 1549 1550 1550 1551 1551 1552 1552 1552 1552 1551 1552 1551 1551 1552 1551 1551 1552 1551 1551 1551 1551 1551 1551 1552 1552 1552 1552 1552 1551 1551 1551 1551 1551 1551 1551 1551 1550 1549
1544 1545 1546 1547 1548 1549 1550 1551 1552 1552 1553 1553 1553 1552 1552 1552 1552 1551 1552 1550 1551 1551 1550 1550 1550 1550 1550 1550 1551 1551 1551 1551 1551 1550 1550 1550 1550 1550 1549 1549 1549 1549 1548
1543 1544 1545 1546 1548 1549 1550 1550 1551 1552 1553 1553 1553 1552 1552 1552 1551 1552 1551 1551 1550 1550 1549 1549 1549 1549 1549 1549 1550 1550 1550 1551 1550 1550 1550 1549 1549 1549 1548 1548 1547 1547 1546
1542 1543 1545 1546 1547 1548 1549 1551 1551 1551 1552 1553 1552 1552 1552 1551 1551 1551 1550 1550 1549 1549 1549 1548 1548 1548 1548 1548 1548 1549 1549 1549 1550 1550 1549 1549 1549 1548 1548 1547 1546 1545 1545
1540 1542 1544 1545 1546 1547 1548 1550 1551 1551 1552 1552 1552 1552 1551 1551 1551 1551 1550 1549 1549 1549 1548 1548 1548 1547 1547 1547 1547 1547 1548 1548 1548 1549 1549 1548 1548 1547 1547 1547 1546 1545 1545
1539 1541 1542 1544 1545 1546 1547 1548 1549 1551 1551 1552 1551 1551 1550 1551 1550 1550 1549 1549 1548 1548 1547 1547 1546 1546 1546 1546 1546 1546 1547 1547 1547 1548 1548 1548 1548 1547 1547 1546 1546 1545 1544
1537 1539 1541 1542 1543 1545 1546 1547 1548 1549 1550 1550 1550 1551 1550 1550 1550 1549 1549 1548 1548 1547 1546 1546 1545 1545 1545 1545 1545 1546 1546 1546 1546 1546 1546 1546 1546 1546 1546 1545 1545 1544 1544